This is the latest recevied weather packets stored in our database for station/object K9TLD. If no packets are shown the sender has not sent any weather packets the latest 10 day(s).
| Time | Temp. | Humidity | Pressure | Rain* | Wind** | Luminosity | Snow |
|---|---|---|---|---|---|---|---|
| 1778252557 | 16.67° C | 37% | 1011.3 hPa | 0 mm | - | 573 W/m² | - |
| 1778252253 | 16.67° C | 34% | 1011.3 hPa | 0 mm | - | 561 W/m² | - |
| 1778251949 | 16.67° C | 36% | 1011.2 hPa | 0 mm | - | 548 W/m² | - |
| 1778251646 | 17.22° C | 36% | 1011.5 hPa | 0 mm | - | 535 W/m² | - |
| 1778251344 | 17.22° C | 40% | 1011.4 hPa | 0 mm | - | 479 W/m² | - |
| 1778251041 | 16.67° C | 42% | 1011.4 hPa | 0 mm | - | 508 W/m² | - |
| 1778250739 | 16.11° C | 39% | 1011.3 hPa | 0 mm | - | 503 W/m² | - |
| 1778250434 | 16.67° C | 39% | 1011.5 hPa | 0 mm | - | 490 W/m² | - |
| 1778250132 | 16.11° C | 43% | 1011.4 hPa | 0 mm | - | 478 W/m² | - |
| 1778249828 | 15.56° C | 42% | 1011.3 hPa | 0 mm | - | 466 W/m² | - |
| 1778249526 | 15.56° C | 44% | 1011.5 hPa | 0 mm | - | 448 W/m² | - |
| 1778249223 | 15° C | 44% | 1011.6 hPa | 0 mm | - | 438 W/m² | - |
| 1778248920 | 15° C | 44% | 1011.7 hPa | 0 mm | - | 424 W/m² | - |
| 1778248616 | 15° C | 44% | 1011.7 hPa | 0 mm | - | 410 W/m² | - |
| 1778248312 | 14.44° C | 49% | 1011.8 hPa | 0 mm | - | 395 W/m² | - |
| 1778248008 | 14.44° C | 49% | 1011.9 hPa | 0 mm | - | 381 W/m² | - |
| 1778247705 | 13.89° C | 48% | 1011.8 hPa | 0 mm | - | 365 W/m² | - |
| 1778247402 | 13.89° C | 48% | 1011.7 hPa | 0 mm | - | 341 W/m² | - |
| 1778247099 | 13.33° C | 49% | 1011.9 hPa | 0 mm | - | 335 W/m² | - |
| 1778246797 | 12.78° C | 50% | 1011.9 hPa | 0 mm | - | 320 W/m² | - |
| 1778246494 | 12.78° C | 51% | 1011.9 hPa | 0 mm | - | 305 W/m² | - |
| 1778246189 | 12.22° C | 54% | 1011.9 hPa | 0 mm | - | 290 W/m² | - |
| 1778245886 | 12.22° C | 56% | 1011.8 hPa | 0 mm | - | 276 W/m² | - |
| 1778245583 | 11.67° C | 56% | 1012 hPa | 0 mm | - | 260 W/m² | - |
| 1778245279 | 11.67° C | 58% | 1011.8 hPa | 0 mm | - | 246 W/m² | - |
* Rain latest hour (hover to see other rain measurements)
** Current wind speed in m/s (hover to see current wind gust speed)